Hourly Data Report for October 05, 2015

All times are specified in Local Standard Time (LST). Add 1 hour to adjust for Daylight Saving Time where and when it is observed.

MONCTON INTL A
NEW BRUNSWICK

46°06'44.000" N
64°40'43.000" W
70.70 m
8103201
71705
YQM

Download Data

Hourly Data (October 2015)
Hourly Data Report for October 5, 2015
Temp Definition
°C
Dew Point Temp Definition
°C
Rel Hum Definition
%
Wind Dir Definition
10's deg

Wind Spd Definition
km/h
Visibility Definition
km
Stn Press Definition
kPa
Hmdx Definition


Wind Chill Definition


Weather Definition


TIME
00:00 Legend Double Dagger 5.8 5.7 99   0 24.1 101.85     LegendNANA
01:00 Legend Double Dagger 3.0 2.7 98 31 4 24.1 101.88     LegendNANA
02:00 Legend Double Dagger 3.0 2.7 98 25 7 3.2 101.91     Fog
03:00 Legend Double Dagger 2.0 1.7 98 21 12 0.6 101.87     Fog
04:00 Legend Double Dagger 1.2 0.9 98 22 12 0.4 101.86     Fog
05:00 Legend Double Dagger 1.4 1.3 99 23 6 0.6 101.83     Fog
06:00 Legend Double Dagger 1.5 1.5 100 26 4 1.2 101.78     Fog
07:00 Legend Double Dagger 0.9 0.9 100 17 7 4.8 101.75     Fog
08:00 Legend Double Dagger 4.0 4.0 100 24 4 4.8 101.70     Fog
09:00 Legend Double Dagger 7.4 7.1 98 36 1 24.1 101.68     LegendNANA
10:00 Legend Double Dagger 11.1 8.4 83 15 3 24.1 101.63     LegendNANA
11:00 Legend Double Dagger 13.9 9.2 73 19 13 24.1 101.58     Mainly Clear
12:00 Legend Double Dagger 15.5 8.3 62 14 19 24.1 101.53     LegendNANA
13:00 Legend Double Dagger 16.0 8.8 62 17 10 24.1 101.44     LegendNANA
14:00 Legend Double Dagger 16.9 9.4 61 12 4 24.1 101.33     Mostly Cloudy
15:00 Legend Double Dagger 16.4 9.2 62 17 14 24.1 101.27     LegendNANA
16:00 Legend Double Dagger 15.9 8.7 62 14 11 24.1 101.23     LegendNANA
17:00 Legend Double Dagger 14.7 9.3 70 15 12 24.1 101.18     Mostly Cloudy
18:00 Legend Double Dagger 13.0 9.5 79 15 9 24.1 101.16     LegendNANA
19:00 Legend Double Dagger 12.2 9.1 81 18 8 24.1 101.14     LegendNANA
20:00 Legend Double Dagger 11.7 9.1 84 20 7 24.1 101.14     Mainly Clear
21:00 Legend Double Dagger 10.6 8.7 88 21 10 24.1 101.13     LegendNANA
22:00 Legend Double Dagger 9.2 7.8 91 22 8 24.1 101.07     LegendNANA
23:00 Legend Double Dagger 9.3 8.9 97 27 5 24.1 101.05     Mainly Clear

Notes on Data Quality.

Legend

  • E = Estimated
  • M = Missing
  • NA = Not Available
  • ‡ = Partner data that is not subject to review by the National Climate Archives
Date modified: